Location: Crab Orchard
(37.7292°N, 88.8042°W)
Time: 07:33:27
(UTC+00:00)

NOSS 2 (A) - Pass Details

Date: 08 December 2019
Orbit: 273 x 1575 km, 63.3° (Epoch: 06 February)

Event Time Altitude Azimuth Distance (km) Brightness Sun altitude
Rises 23:21:47 0° 332° (NNW) 1,968 8.2 -9.0°
Reaches altitude 10° 23:23:44 10° 339° (NNW) 1,111 6.9 -9.3°
Maximum altitude 23:26:02 46° 55° (NE) 379 4.1 -9.8°
Drops below altitude 10° 23:28:20 10° 132° (SE) 1,113 6.6 -10.2°
Sets 23:30:17 0° 139° (SE) 1,972 8.0 -10.5°
